Regional Weather Roundup
Issued by NWS Cleveland, OH

Home | Current Version | Previous Version | Graphics & Text | Print | Product List | Glossary On
Versions: 1 2 3 4 5 6 7 8 9 10 11 12 13 14 15 16 17 18 19 20 21 22 23 24 25 26 27 28 29 30 31 32 33 34 35 36 37 38 39 40 41 42 43 44 45 46 47 48 49 50
000
ASUS41 KCLE 261110
RWRCLE
OHIO REGIONAL WEATHER ROUNDUP
NATIONAL WEATHER SERVICE CLEVELAND, OH
700 AM EDT SUN MAR 26 2017

NOTE: "FAIR" INDICATES FEW OR NO CLOUDS BELOW 12,000 FEET WITH NO
SIGNIFICANT WEATHER AND/OR OBSTRUCTIONS TO VISIBILITY.

OHZ001>008-015>018-024>027-034-035-043-044-261200-
   NORTHWEST OHIO

CITY           SKY/WX    TMP DP  RH WIND       PRES   REMARKS
DEFIANCE       CLOUDY    39  36  89 NE9       30.00S
FINDLAY        CLOUDY    42  36  79 NE6       29.99S
TOLEDO EXPRESS CLOUDY    38  36  92 E12       30.01F
TOLEDO EXEC    CLOUDY    38  37  97 NE9       30.02F
LIMA           MOCLDY    43  40  89 NE5       29.97F
$$

OHZ009>014-019>023-028>033-038-089-261200-
   NORTHEAST OHIO

CITY           SKY/WX    TMP DP  RH WIND       PRES   REMARKS
CLE-HOPKINS    PTCLDY    60  48  64 SE14      30.02F
CLE-LAKEFRONT  CLOUDY    40  38  93 NE10      30.00F
CUY CO. ARPT   MOCLDY    59  50  72 SE15      30.02
LORAIN-ELYRIA  PTCLDY    43  38  82 E7        29.99F
ASHTABULA      CLOUDY    52  47  83 SE12      30.06F
AKRON-CANTON   MOCLDY    59  49  69 SE9       30.03S
WOOSTER        MOCLDY    53  48  83 SE7       30.01S
MANSFIELD      CLOUDY    57  50  77 S8        29.98F
YOUNGSTOWN     CLOUDY    54  47  77 E13       30.07S
$$

OHZ042-051>053-060>062-070>072-077>081-261200-
  SOUTHWEST OHIO

CITY           SKY/WX    TMP DP  RH WIND       PRES   REMARKS
CINC-COVINGTON LGT RAIN  57  56  96 S7        29.98S
CINC-LUNKEN    LGT RAIN  59  56  89 S7        29.99S
HAMILTON       LGT RAIN  59  57  93 CALM      29.98F
DAYTON         LGT RAIN  58  54  86 SW7       29.98S
WRIGHT-PAT AFB CLOUDY    57  56  97 SW6       29.97S
DAYTON GENERAL LGT RAIN  59  55  87 SW7       29.98R
WILMINGTON     CLOUDY    54  49  83 SW7       29.99R
$$

OHZ036-037-039>041-045>050-054>059-063>069-073>076-082>088-261200-
  CENTRAL AND SOUTHEAST OHIO

CITY           SKY/WX    TMP DP  RH WIND       PRES   REMARKS
COLUMBUS       CLOUDY    61  49  64 SW3       29.97S
OSU AIRPORT    CLOUDY    57  50  77 CALM      29.97S
BOLTON FIELD   CLOUDY    54  49  83 S3        29.98S
RICKENBACK AFB MOCLDY    58  49  72 SW5       29.97R
NEWARK         MOCLDY    50  47  89 CALM      29.97F
MARION         CLOUDY    45  41  86 N6        29.98F
LANCASTER      MOCLDY    61  48  62 SE7       29.99R
ZANESVILLE     MOCLDY    59  48  67 SE7       30.00S
NEW PHILLY     NOT AVBL
$$



USA.gov is the U.S. government's official web portal to all federal, state and local government web resources and services.